This is the latest recevied weather packets stored in our database for station/object W6SNO-1. If no packets are shown the sender has not sent any weather packets the latest 10 day(s).
| Time | Temp. | Humidity | Pressure | Rain* | Wind** | Luminosity | Snow |
|---|---|---|---|---|---|---|---|
| 1778021605 | 16.11° C | 71% | 1015.5 hPa | 0 mm | - | 165 W/m² | - |
| 1778021299 | 16.11° C | 70% | 1015.6 hPa | 0 mm | - | 172 W/m² | - |
| 1778020998 | 16.11° C | 71% | 1015.7 hPa | 0 mm | - | 174 W/m² | - |
| 1778020694 | 16.11° C | 71% | 1016 hPa | 0 mm | - | 203 W/m² | - |
| 1778020391 | 16.11° C | 70% | 1015.8 hPa | 0 mm | - | 175 W/m² | - |
| 1778020087 | 16.67° C | 71% | 1016 hPa | 0 mm | - | 214 W/m² | - |
| 1778019783 | 16.67° C | 69% | 1016 hPa | 0 mm | - | 205 W/m² | - |
| 1778019481 | 16.67° C | 69% | 1015.9 hPa | 0 mm | - | 250 W/m² | - |
| 1778019177 | 16.11° C | 71% | 1015.9 hPa | 0 mm | - | 295 W/m² | - |
| 1778018874 | 16.11° C | 72% | 1016 hPa | 0 mm | - | 224 W/m² | - |
| 1778018571 | 15.56° C | 72% | 1016.1 hPa | 0 mm | - | 162 W/m² | - |
| 1778018269 | 16.11° C | 71% | 1016 hPa | 0 mm | - | 152 W/m² | - |
| 1778017967 | 16.11° C | 71% | 1016.1 hPa | 0 mm | - | 147 W/m² | - |
| 1778017665 | 15.56° C | 72% | 1016.1 hPa | 0 mm | - | 154 W/m² | - |
| 1778017362 | 15.56° C | 72% | 1016.1 hPa | 0 mm | - | 162 W/m² | - |
| 1778017059 | 15.56° C | 72% | 1016.3 hPa | 0 mm | - | 186 W/m² | - |
| 1778016756 | 15.56° C | 72% | 1016.3 hPa | 0 mm | - | 161 W/m² | - |
| 1778016452 | 15° C | 73% | 1016.3 hPa | 0 mm | - | 133 W/m² | - |
| 1778016150 | 15° C | 73% | 1016.4 hPa | 0 mm | - | 128 W/m² | - |
| 1778015846 | 15° C | 73% | 1016.3 hPa | 0 mm | - | 134 W/m² | - |
| 1778015544 | 15° C | 73% | 1016.3 hPa | 0 mm | - | 136 W/m² | - |
| 1778015240 | 15° C | 73% | 1016.2 hPa | 0 mm | - | 157 W/m² | - |
| 1778014937 | 15° C | 73% | 1016.4 hPa | 0 mm | - | 165 W/m² | - |
| 1778014634 | 15° C | 73% | 1016.3 hPa | 0 mm | - | 161 W/m² | - |
| 1778014333 | 15° C | 73% | 1016.5 hPa | 0 mm | - | 170 W/m² | - |
* Rain latest hour (hover to see other rain measurements)
** Current wind speed in m/s (hover to see current wind gust speed)